Location: Buckeye Ditch
(40.9104°N, 122.9517°W)
Time: 19:32:44
(UTC+00:00)

BlueWalker 3 - Pass Details

Date: 26 June 2024
Orbit: 480 x 491 km, 53.2° (Epoch: 24 July)

Event Time Altitude Azimuth Distance (km) Brightness Sun altitude
Rises 05:54:12 0° 302° (WNW) 2,542 6.7 -17.9°
Reaches altitude 10° 05:57:31 10° 334° (NNW) 1,660 5.8 -18.3°
Maximum altitude 05:59:08 12° 360° (N) 1,517 5.2 -18.4°
Drops below altitude 10° 06:00:46 10° 26° (NNE) 1,659 5.0 -18.6°
Sets 06:04:04 0° 57° (ENE) 2,537 5.5 -18.9°
